Location: York
(31.8935°S, 116.7682°E)
Time: 09:47:11
(UTC+08:00)

deb Explorer IX - Pass Details

Date: 30 September 2022
Orbit: 533 x 1057 km, 38.8° (Epoch: 01 December)

Event Time Altitude Azimuth Distance (km) Brightness Sun altitude
Rises 18:47:15 0° 302° (WNW) 3,580 ? -7.8°
Reaches altitude 10° 18:50:02 10° 304° (NW) 2,561 ? -8.4°
Maximum altitude 18:56:05 73° 27° (NNE) 836 ? -9.7°
Drops below altitude 10° 19:01:16 10° 111° (ESE) 2,202 ? -10.8°
Enters shadow 19:01:20 10° 111° (ESE) 2,225 ? -10.8°
Sets 19:03:31 0° 113° (ESE) 3,045 - -11.2°
